[keps] orb08108.2l.amsat
Ray Hoad
r.hoad at att.net
Thu Apr 17 18:09:42 PDT 2008
SB KEPS @ AMSAT $ORB08108.N
2Line Orbital Elements 08108.AMSAT
HR AMSAT ORBITAL ELEMENTS FOR AMATEUR SATELLITES IN NASA FORMAT
FROM WA5QGD FORT WORTH,TX April 17, 2008
Send Subscribe/unsubscribe to KEPS at
http://www.amsat.org/mailman/listinfo/keps
BID: ORB08108.N
DECODE 2-LINE ELSETS WITH THE FOLLOWING KEY:
1 AAAAAU 00 0 0 BBBBB.BBBBBBBB .CCCCCCCC 00000-0 00000-0 0 DDDZ
2 AAAAA EEE.EEEE FFF.FFFF GGGGGGG HHH.HHHH III.IIII JJ.JJJJJJJJKKKKKZ
KEY: A-CATALOGNUM B-EPOCHTIME C-DECAY D-ELSETNUM E-INCLINATION F-RAAN
G-ECCENTRICITY H-ARGPERIGEE I-MNANOM J-MNMOTION K-ORBITNUM Z-CHECKSUM
TO ALL RADIO AMATEURS BT
AO-07
1 07530U 74089B 08108.72050569 -.00000027 00000-0 10000-3 0 1541
2 07530 101.4715 142.2280 0011837 021.9484 338.2085 12.53573753529403
AO-10
1 14129U 83058B 08108.53908122 .00000149 00000-0 10000-3 0 4968
2 14129 025.9256 219.8988 6006147 116.1824 316.1114 02.05868097186850
UO-11
1 14781U 84021B 08108.52615265 .00000176 00000-0 30727-4 0 6461
2 14781 098.1607 141.6374 0007963 268.2221 091.8102 14.79634377294881
RS-15
1 23439U 94085A 08107.81645627 -.00000039 00000-0 10000-3 0 01610
2 23439 064.8161 234.2858 0149447 134.5393 226.7849 11.27552043548047
FO-29
1 24278U 96046B 08108.85073034 -.00000018 00000-0 18631-4 0 7525
2 24278 098.5872 033.0274 0351264 011.8505 349.0637 13.52936996576232
SO-33
1 25509U 98061B 08108.79732176 .00000007 00000-0 -13167-4 0 1772
2 25509 031.4327 297.8154 0354953 219.2258 138.2197 14.28212191494972
AO-40
1 26609U 00072B 08108.30068952 -.00000174 00000-0 10000-3 0 439
2 26609 007.5547 087.4810 7915516 072.2316 353.6918 01.25583289 34270
VO-52
1 28650U 05017B 08107.74025901 -.00000095 00000-0 -54245-5 0 9067
2 28650 097.7935 176.0253 0026782 343.7918 016.2448 14.81447655159507
PO-63
1 29712U 07001D 08108.72031394 .00000546 00000-0 78827-4 0 3664
2 29712 097.8798 168.0318 0013361 214.1965 145.8384 14.80106608 68528
AO-16
1 20439U 90005D 08108.55229171 .00000040 00000-0 30184-4 0 2998
2 20439 098.2264 091.7279 0011418 002.3953 357.7294 14.31790685952246
LO-19
1 20442U 90005G 08108.53979087 -.00000040 00000-0 20823-6 0 2259
2 20442 098.1987 100.4323 0011837 000.4268 359.6918 14.32028948952399
AO-27
1 22825U 93061C 08108.57425779 .00000054 00000-0 37674-4 0 9474
2 22825 098.3787 070.8860 0009402 081.0318 279.1910 14.29236539759114
IO-26
1 22826U 93061D 08107.79888711 .00000014 00000-0 21808-4 0 06517
2 22826 098.3710 071.0785 0009928 078.5745 281.6555 14.29484427759099
PO-28
1 22829U 93061G 08107.81547238 .00000006 00000-0 18374-4 0 9225
2 22829 098.3586 072.2094 0010749 052.9059 307.3105 14.30186286759356
GO-32
1 25397U 98043D 08107.73243941 -.00000090 00000-0 -21598-4 0 5760
2 25397 098.3703 145.9129 0002143 078.4582 281.6856 14.23141085507471
MO-46
1 26548U 00057D 08107.81254484 -.00000115 00000-0 40711-5 0 749
2 26548 064.5585 320.1871 0023005 333.0647 026.9233 14.83248835408719
NO-44
1 26931U 01043C 08107.43726943 .00000220 00000-0 11834-3 0 8558
2 26931 067.0509 083.7300 0005845 277.9332 082.1107 14.29520086341583
SO-50
1 27607U 02058C 08108.58274407 -.00000006 00000-0 21295-4 0 5807
2 27607 064.5582 237.6904 0083396 291.2200 067.9973 14.71345936286055
CO-55
1 27844U 03031E 08107.59608466 .00000050 00000-0 43780-4 0 2839
2 27844 098.7177 116.7164 0009189 297.6046 062.4197 14.20572339248697
CO-57
1 27848U 03031J 08108.57210248 .00000030 00000-0 34495-4 0 2357
2 27848 098.7177 116.7865 0009250 298.6512 061.3742 14.20382780248803
AO-51
1 28375U 04025K 08107.58030494 .00000019 00000-0 18644-4 0 00791
2 28375 098.0774 135.6013 0084628 340.4428 019.3521 14.40603783199538
CO-56
1 28941U 06005C 08107.95634881 .00015117 26202-5 12534-3 0 09940
2 28941 098.1018 210.4600 0176270 262.8454 095.2732 15.53529645120523
CP4
1 31122U 07012F 08107.75639558 .00000552 00000-0 13192-3 0 03178
2 31122 098.0470 175.6164 0086230 159.0145 201.4610 14.55112461053140
CP3
1 31128U 07012M 08107.86404929 -.00000047 00000-0 00000-0 0 03090
2 31128 098.0419 173.8824 0103704 163.9160 196.5359 14.51934466053034
LIBERT
1 31129U 07012N 08108.73781295 .00000339 00000-0 89029-4 0 8980
2 31129 098.0430 174.7567 0103480 161.2558 199.2476 14.52026047 53145
NOAA-10
1 16969U 86073A 08107.60753080 -.00000002 00000-0 17469-4 0 00850
2 16969 098.7272 129.6899 0012350 005.5500 354.5823 14.27356331122659
NOAA-11
1 19531U 88089A 08107.78492277 .00000138 00000-0 94292-4 0 01268
2 19531 098.7954 197.9686 0010871 241.0454 118.9607 14.14870509009220
NOAA-12
1 21263U 91032A 08107.78656455 -.00000067 00000-0 -92386-5 0 06334
2 21263 098.7671 109.7451 0011722 307.1834 052.8256 14.25526174879649
MET-3/5
1 21655U 91056A 08107.96189905 .00000051 00000-0 10000-3 0 04730
2 21655 082.5559 147.6394 0013485 160.6333 199.5302 13.17015129801527
MET-2/21
1 22782U 93055A 08108.68219172 -.00000028 00000-0 -38837-4 0 1184
2 22782 082.5495 159.5759 0024210 099.2381 261.1528 13.83626549738761
OKEAN-4
1 23317U 94066A 08107.77568609 .00000136 00000-0 13882-4 0 05627
2 23317 082.5421 012.3706 0021689 334.0927 025.9221 14.82600481729185
NOAA-14
1 23455U 94089A 08107.83325827 -.00000021 00000-0 12614-4 0 01087
2 23455 098.9479 180.0317 0008686 322.4633 037.5941 14.13738157685680
SICH-1
1 23657U 95046A 08107.75643627 .00000017 00000-0 -77421-6 0 03599
2 23657 082.5287 153.3673 0022884 326.0110 033.9666 14.81568156681128
NOAA-15
1 25338U 98030A 08107.83591582 -.00000057 00000-0 -60500-5 0 04320
2 25338 098.5530 101.2621 0009985 216.7730 143.2739 14.24695053516069
RESURS
1 25394U 98043A 08107.70433987 -.00000028 00000-0 60090-5 0 09119
2 25394 098.3922 154.4458 0002217 041.2655 318.8691 14.24156382507693
FENGYUN1
1 25730U 99025A 08108.92578429 -.00000149 00000-0 -63013-4 0 3891
2 25730 098.7221 086.7557 0022150 345.7429 014.3114 14.07719974460485
OKEAN-0
1 25860U 99039A 08107.59373575 .00000047 00000-0 14529-4 0 03441
2 25860 097.7482 100.8764 0001763 084.3461 275.7943 14.73514886470329
NOAA-16
1 26536U 00055A 08107.79193016 .00000249 00000-0 16015-3 0 08961
2 26536 099.1540 095.6319 0011115 041.2380 318.9608 14.12477632390107
NOAA-17
1 27453U 02032A 08107.71015676 .00000177 00000-0 95522-4 0 08910
2 27453 098.5378 174.1042 0010738 288.0803 071.9199 14.23965893302056
NOAA-18
1 28654U 05018A 08107.72177831 -.00000009 00000-0 19220-4 0 03982
2 28654 098.8632 049.4201 0014935 124.7094 235.5489 14.11154498149808
HUBBLE
1 20580U 90037B 08107.94661864 .00000329 00000-0 12666-4 0 01186
2 20580 028.4691 002.6426 0003627 096.7204 263.3797 15.00365584785771
UARS
1 21701U 91063B 08107.95676551 .00005490 00000-0 84987-4 0 03475
2 21701 056.9721 068.4861 0090649 064.8305 296.2119 15.51311551912998
PO-34
1 25520U 98064B 08107.56070301 .00000388 00000-0 93559-5 0 09837
2 25520 028.4598 231.3562 0004925 330.7045 029.3275 15.17173749523795
ISS
1 25544U 98067A 08108.84026620 .00015758 00000-0 96352-4 0 3253
2 25544 051.6405 327.4136 0001498 018.3520 164.0675 15.77562016539006
OO-38
1 26063U 00004C 08107.76069434 -.00000032 00000-0 91525-5 0 1878
2 26063 100.1955 171.2649 0036974 023.2104 337.0736 14.35832286430751
UWE-1
1 28892U 05043C 08107.73040238 -.00000020 00000-0 55439-5 0 00258
2 28892 098.1029 002.8197 0016197 241.1864 118.7727 14.59615538131631
CO-58
1 28895U 05043F 08107.70002265 .00000154 00000-0 41874-4 0 09990
2 28895 098.1049 003.1223 0016849 240.3872 119.5668 14.59657686131514
NCUBE2
1 28897U 05043H 08107.67170891 .00000160 00000-0 43054-4 0 5286
2 28897 098.1022 003.0295 0016216 243.5002 116.4542 14.59827037123790
FCAL
1 29667U 06055J 08107.90761894 .00131350 20329-4 11403-3 0 08989
2 29667 051.6258 277.2812 0003014 110.2288 249.9139 16.12876714076674
FALCON
1 30776U 07006E 08108.59307229 .00000347 00000-0 28343-4 0 2924
2 30776 035.4333 160.9739 0001070 263.8741 096.1852 15.02953128 61026
MAST
1 31126U 07012K 08108.65875094 -.00000005 00000-0 93626-5 0 3041
2 31126 098.0416 175.4999 0095512 159.0557 201.4592 14.53415159 53224
CAPE1
1 31130U 07012P 08108.75541925 -.00000070 00000-0 -53330-5 0 2859
2 31130 098.0427 174.7418 0103429 161.2196 199.2860 14.51951156 52951
/EX
More information about the Keps
mailing list